*** The Vicarage Weather Feed ***

NOAA NWS Hourly Roundups by Site

Regional Weather Roundup for Omaha, NE

To Select Another Site Choose from List

Select Site:  

000
ASUS43 KOAX 210410
RWRNE

WEATHER ROUNDUP FOR NEBRASKA
NATIONAL WEATHER SERVICE OMAHA NE
1100 PM CDT TUE APR 20 2021

NOTES: SATELLITE DATA IS BEING USED TO AUGMENT CLOUD COVER ABOVE
       12000 FEET.
       "FAIR" INDICATES FEW OR NO CLOUDS BELOW 12,000 FEET WITH NO
       SIGNIFICANT WEATHER AND/OR OBSTRUCTIONS TO VISIBILITY.


NEZ001>004-019>022-054>056-210500-
NEBRASKA PANHANDLE

CITY           SKY/WX    TMP DP  RH WIND       PRES   REMARKS
SCOTTSBLUFF    CLEAR     28  19  69 N9        30.27R WCI  19
ALLIANCE       LGT SNOW  26  22  84 N13G21    30.26R FOG     WCI  15
CHADRON        CLOUDY    29  18  63 N7        30.30R WCI  22
GORDON         CLOUDY    28  20  73 N10       30.25S WCI  18
KIMBALL        CLEAR     25  19  79 N6        30.25R WCI  18
SIDNEY         CLEAR     25  20  81 NW9       30.24R WCI  15
$$

NEZ057>060-069>072-079>082-210500-
SOUTHWEST NEBRASKA

CITY           SKY/WX    TMP DP  RH WIND       PRES   REMARKS
NORTH PLATTE   MOCLDY    30  20  66 NW13      30.24R WCI  20
IMPERIAL       CLEAR     30  19  63 W7        30.25R WCI  23
LEXINGTON      CLEAR     28  24  84 W8        30.24R WCI  20
MCCOOK         CLEAR     30  19  63 NW10      30.25R WCI  21
OGALLALA       PTCLDY    28  22  79 N13       30.26R WCI  17
$$

NEZ005>010-023>029-035>040-094-210500-
NORTH CENTRAL NEBRASKA

CITY           SKY/WX    TMP DP  RH WIND       PRES   REMARKS
VALENTINE      MOCLDY    30  25  81 N9        30.25S WCI  22
AINSWORTH      CLOUDY    31  26  83 NW9       30.24R WCI  23
BROKEN BOW     PTCLDY    29  24  82 NW10      30.22R WCI  20
O`NEILL        CLOUDY    32  27  80 NW9       30.22R WCI  24
ORD            PTCLDY    26  21  81 NW9       30.21R WCI  17
THEDFORD       PTCLDY    31  25  77 NW12G17   30.25R WCI  22
$$

NEZ041-046>049-061>064-073>077-083>087-210500-
SOUTH CENTRAL NEBRASKA

CITY           SKY/WX    TMP DP  RH WIND       PRES   REMARKS
GRAND ISLAND   CLEAR     31  25  78 NW6       30.23R WCI  25
AURORA         CLEAR     28  26  94 NW6       30.21S WCI  21
HASTINGS       CLEAR     32  28  85 NW7       30.23R WCI  26
HEBRON         CLEAR     34  33  96 CALM      30.23S
HOLDREGE       CLEAR     32  24  71 NW6       30.24R WCI  26
KEARNEY        CLEAR     31  25  78 NW6       30.24R WCI  25
YORK           CLEAR     28  28 100 CALM      30.21S
$$

NEZ011>018-030>034-042>045-210500-
NORTHEAST NEBRASKA

CITY           SKY/WX    TMP DP  RH WIND       PRES   REMARKS
NORFOLK        PTCLDY    31  28  89 W8        30.20R WCI  23
ALBION         CLEAR     28  24  86 NW5       30.21R WCI  22
BLAIR          CLOUDY   N/A N/A N/A W14G21    30.17S
COLUMBUS       CLEAR     31  29  92 W7        30.22R WCI  24
FREMONT        CLOUDY    38  30  71 W9        30.19F WCI  32
TEKAMAH        CLOUDY    41  26  55 NW12      30.18R
WAYNE          PTCLDY    33  28  82 W9        30.19S WCI  25
$$

NEZ050>053-065>068-078-088>093-210500-
SOUTHEAST NEBRASKA

CITY           SKY/WX    TMP DP  RH WIND       PRES   REMARKS
LINCOLN        CLOUDY    37  31  78 W5        30.22S WCI  33
OMAHA EPPLEY   CLOUDY    40  19  43 S5        30.18S
BEATRICE       MOCLDY    36  32  87 W9        30.21R WCI  29
FALLS CITY     CLOUDY    36  27  69 S6        30.20R WCI  31
NEBRASKA CITY  CLOUDY   N/A N/A N/A SW5       30.19S
PLATTSMOUTH    CLOUDY    42  13  30 CALM      30.18S
$$

NEZ044-045-051>053-067-210500-
OMAHA AREA

CITY           SKY/WX    TMP DP  RH WIND       PRES   REMARKS
OMAHA EPPLEY   CLOUDY    40  19  43 S5        30.18S
BLAIR          CLOUDY   N/A N/A N/A W14G21    30.17S
FREMONT        CLOUDY    38  30  71 W9        30.19F WCI  32
MILLARD        CLOUDY    44  18  36 W5        30.18S
OFFUTT AFB     CLOUDY   N/A N/A N/A NW3         N/A
PLATTSMOUTH    CLOUDY    42  13  30 CALM      30.18S
WAHOO          CLOUDY    38  31  75 NW7       30.20R WCI  33
$$


 

View Past Reports for Omaha, NE.

Products Courtesy of NOAA-NWS
NWS Information Parsing Script by Ken True at Saratoga Weather - Script by SE Lincoln Weather.

This data is offered only as a general guide to local weather conditions. It should not be relied upon in lieu of officially disseminated weather information for determining possible risk to persons or property. This site, including all information contained therein, is made available as is without warranties of any kind, either express or implied. The Vicarage Weather Feed© includes links to other sites for user convenience only. The content of any linked third-party site is not controlled by The Vicarage Weather Feed©. Access to any third-party website through The Vicarage Weather Feed©, regardless of whether or not the third-party site is a linked site, is entirely at the users own risk. Externally sourced content or material is excluded from The Vicarage Weather Feed© copyright and is the copyright and property of the respective provider. Skywarn® and the Skywarn® logo are registered trademarks of the National Oceanic and Atmospheric Administration, used with permission.